Location: Brabourne
(51.1333°N, 1.0000°E)
Time: 04:34:32
(UTC+00:00)

NOSS 3-1 (A) - Pass Details

Date: 26 October 2021
Orbit: 721 x 1491 km, 63.4° (Epoch: 22 November)

Event Time Altitude Azimuth Distance (km) Brightness Sun altitude
Rises 19:59:50 0° 252° (WSW) 3,310 7.0 -31.5°
Reaches altitude 10° 20:02:12 10° 259° (W) 2,458 6.3 -31.8°
Maximum altitude 20:07:38 44° 332° (NNW) 1,286 4.3 -32.6°
Enters shadow 20:08:59 39° 3° (N) 1,427 4.4 -32.8°
